Location: Woodland Altars Campground
(39.0410°N, 83.3840°W)
Time: 14:12:15
(UTC-04:00)

ISS - Visible Passes

Search period start: 25 March 2019 00:00
Search period end: 04 April 2019 00:00
Orbit: 408 x 411 km, 51.6° (Epoch: 25 March)

Date Brightness Start Highest point End Pass type
(mag) Time Alt. Az. Time Alt. Az. Time Alt. Az.
25 Mar -1.0 21:28:41 10° NW 21:30:36 14° NNW 21:32:31 10° NNE visible
26 Mar -1.3 20:37:15 10° WNW 20:39:44 19° NNW 20:42:13 10° NNE visible
27 Mar -0.8 21:25:39 10° NNW 21:26:24 11° N 21:27:08 10° N visible
28 Mar -1.0 20:33:53 10° NW 20:35:26 13° NNW 20:36:59 10° NNE visible
30 Mar -0.9 22:07:29 10° NNW 22:08:17 12° N 22:08:17 12° N visible
31 Mar -1.0 21:17:20 10° N 21:17:59 10° N 21:18:39 10° NNE visible
01 Apr -1.3 22:02:08 10° NNW 22:03:41 17° N 22:03:41 17° N visible
02 Apr -1.4 21:11:46 10° NNW 21:13:38 14° NNE 21:15:00 12° NE visible
02 Apr -0.3 22:47:29 10° NW 22:47:45 12° NW 22:47:45 12° NW visible
03 Apr -2.1 21:56:54 10° NW 21:59:06 29° N 21:59:06 29° N visible
